Simultaneous Nadir Overpasses (SNOs) Predictions

Prediction of SNOs between AQUA and METOP-A Satellite Orbit:

Table of predicted SNOs for the next 14.0 days since TLE Epoch: 5/29/2020
Index Date (AQUA) Time (AQUA) Lat,Lon (AQUA) SZA (AQUA ) Date (METOP-A) Time (METOP-A) Lat,Lon (METOP-A) SZA (METOP-A ) Distance(km) Time Diff (sec)
1 05/30/2020 04:17:58 -75.87, -75.32 125.79 05/30/2020 04:16:50 -75.81, -77.63 125.70 63.28 68
2 05/30/2020 05:07:33 76.26, 91.11 54.65 05/30/2020 05:07:20 76.27, 91.21 54.66 2.91 13
3 05/30/2020 05:57:00 -76.30,-101.39 125.31 05/30/2020 05:58:01 -76.30,-101.35 125.32 1.19 61
4 06/01/2020 23:52:18 -76.13, -9.69 125.87 06/01/2020 23:51:06 -76.05, -10.52 125.89 24.16 72
5 06/02/2020 00:41:48 76.28, 157.47 54.30 06/02/2020 00:41:41 76.27, 157.57 54.29 3.00 7
6 06/02/2020 01:31:15 -76.32, -35.01 125.66 06/02/2020 01:32:22 -76.30, -34.99 125.70 2.01 67
7 06/04/2020 19:26:36 -76.25, 56.37 126.06 06/04/2020 19:25:24 -76.23, 56.46 126.07 3.25 72
8 06/04/2020 20:16:03 76.26,-136.03 53.95 06/04/2020 20:16:03 76.27,-136.08 53.96 1.41 0
9 06/04/2020 21:05:30 -76.30, 31.50 126.02 06/04/2020 21:06:44 -76.31, 31.37 126.02 3.73 74
10 06/07/2020 15:00:51 -76.23, 122.87 126.36 06/07/2020 14:59:46 -76.23, 122.81 126.34 1.46 65
11 06/07/2020 15:50:19 76.30, -69.71 53.72 06/07/2020 15:50:25 76.27, -69.74 53.69 3.67 6
12 06/07/2020 16:39:51 -76.56, 97.05 125.98 06/07/2020 16:41:01 -76.53, 98.53 126.10 38.39 70
13 06/10/2020 10:35:06 -76.27,-170.81 126.54 06/10/2020 10:34:06 -76.28,-170.68 126.52 3.47 60
14 06/10/2020 11:24:33 76.29, -3.24 53.49 06/10/2020 11:24:45 76.31, -3.23 53.51 2.20 12




NCC Satellite Simultaneous Nadir Overpasses (SNOs) Prediction Service
